Find Kosmos-2304

NORAD ID: 23446 Int'l Des: 1994-086 Owner: VKS Country: RU operational
LEOCIRCULARPOLAR

現在のビュー

3D地球を読み込み中...

Kosmos-2304について

説明を読み込み中...

次回通過

Passes for default location (London). Set your location on the main map for personalized predictions.

高度履歴

Loading altitude history...

軌道要素

1 23446U 94086F 26150.03588627 .00000049 00000-0 21597-3 0 9999
2 23446 82.5708 331.8099 0003645 203.8031 322.5359 12.62204908447399
Epoch: May 30, 2026 • Age: 12 hours

現在のステータス

高度 1435.3 km
速度 7.14 km/s
衛星直下点 -53.69°S, 121.93°W
打ち上げ日 Dec 26, 1994
運用期間 31.4 years
タイプ other

技術仕様

分類 Payload
質量 225.00 kg
乾燥質量 225.00 kg
総質量 225.00 kg
長さ 1.60 m
直径 0.80 m
スパン 7.00 m
形状 Cyl + Ant
製造者 NPOPMR
バスタイプ Strela-3
フェーズステータス In Orbit
所有者/国 VKS/RU

Most Searched